Regional Weather Roundup
Issued by NWS

Home | Current Version | Previous Version | Graphics & Text | Print | Product List | Glossary On
Versions: 1 2 3 4 5 6 7 8 9 10 11 12 13 14 15 16 17 18 19 20 21 22 23 24 25 26 27 28 29 30 31 32 33 34 35 36 37 38 39 40 41 42 43 44 45 46 47 48 49 50
000
ASUS43 KIND 271000
RWRIN

WEATHER ROUNDUP FOR INDIANA
NATIONAL WEATHER SERVICE INDIANAPOLIS IN
600 AM EDT THU JUL 27 2017

NOTE: "FAIR" INDICATES FEW OR NO CLOUDS BELOW 12,000 FEET WITH NO
SIGNIFICANT WEATHER AND/OR OBSTRUCTIONS TO VISIBILITY.

* - STATION DOES NOT REPORT WEATHER SUCH AS PRECIPITATION OR FOG.

+ - STATION NOT QUALITY CONTROLLED BY THE NATIONAL WEATHER SERVICE.
    USE DATA WITH CAUTION...ESPECIALLY DEWPOINT AND RELATIVE
    HUMIDITY OBSERVATIONS.

INZ001>003-010>013-019-020-271100-
NORTHWEST INDIANA

CITY           SKY/WX    TMP DP  RH WIND       PRES   REMARKS
GARY /AIRPORT/ CLOUDY    73  73 100 CALM      29.93R FOG
MICHIGAN CITY+ CLOUDY    72  70  94 S6        29.93R
MONTICELLO +   CLOUDY    71  70  96 SW3       29.93R
RENSSELAER +   CLOUDY    70  68  94 SW5       29.94R
VALPARAISO     CLOUDY    73  72  96 SW6       29.93R

$$

LMZ046-743>745-271100-
SOUTHERN LAKE MICHIGAN

STATION/POSITION TIME  TEMP    WIND        PRES    WAVE
                       AIR SEA DIR/SP/G            HT
                 (UTC) (F)     (DEG/KT/KT) (MB)    (FT)
BURNS HARBOR     0940   72     190/  6/  8 1013.5R
MICHIGAN CITY    0930   73     170/  6/  7   N/A
5NW MICH CITY    0950   73 74  230/  8/ 10   N/A     0

$$

INZ004-005-014>016-021>024-271100-
NORTH CENTRAL INDIANA

CITY           SKY/WX    TMP DP  RH WIND       PRES   REMARKS
GOSHEN         CLOUDY    72  66  81 SE5       29.93S
SOUTH BEND     CLOUDY    73  68  84 S7        29.93R

$$

INZ006>009-017-018-025>027-271100-
NORTHEAST INDIANA

CITY           SKY/WX    TMP DP  RH WIND       PRES   REMARKS
FORT WAYNE     LGT RAIN  70  67  90 SE6       29.96F
KENDALLVILLE + CLOUDY    69  67  94 CALM      29.95F

$$

INZ028-029-035-036-043>045-051>053-271100-
WEST CENTRAL INDIANA

CITY           SKY/WX    TMP DP  RH WIND       PRES   REMARKS
LAFAYETTE      CLOUDY    71  71 100 CALM      29.93R
TERRE HAUTE    CLOUDY    73  71  93 S3        29.94F

$$

INZ030>032-037>040-046>048-054>057-064-065-271100-
CENTRAL INDIANA

CITY           SKY/WX    TMP DP  RH WIND       PRES   REMARKS
INDIANAPOLIS   CLOUDY    74  72  93 SW12      29.95R
-EAGLE CREEK   CLOUDY    75  72  90 CALM      29.94S
KOKOMO +       CLOUDY    71  70  96 CALM      29.95S
MT COMFORT *+  CLOUDY    72  70  94 CALM      29.96S
SHELBYVILLE    CLOUDY    75  70  84 SW3       29.95R

$$

INZ033-034-041-042-049-050-058-059-271100-
EAST CENTRAL INDIANA

CITY           SKY/WX    TMP DP  RH WIND       PRES   REMARKS
MUNCIE         CLOUDY    73  70  90 SE3       29.96S
RICHMOND +     CLOUDY    68  68 100 CALM      29.97S FOG

$$

INZ060-061-067>069-081>083-085>088-271100-
SOUTHWEST INDIANA

CITY           SKY/WX    TMP DP  RH WIND       PRES   REMARKS
EVANSVILLE     LGT RAIN  75  71  87 N8        29.96F
HUNTINGBURG *+ CLOUDY    75  74  96 CALM      29.97R

$$

INZ062-063-066-070>080-084-089>092-271100-
SOUTH CENTRAL AND SOUTHEAST INDIANA

CITY           SKY/WX    TMP DP  RH WIND       PRES   REMARKS
BLOOMINGTON    CLOUDY    74  71  91 CALM      29.96F
MADISON *+     CLOUDY    75  70  83 SW3       29.99R
SEYMOUR +      DRIZZLE   75  73  94 CALM      29.96R

$$




USA.gov is the U.S. government's official web portal to all federal, state and local government web resources and services.